Weather History for KCMI - July, 2014

Change the Weather History Date:

Friday, July 11, 2014

  Actual Average Record
Temperature  
Mean Temperature 71 °F 74 °F  
Max Temperature 84 °F 85 °F 95 °F (2011)
Min Temperature 57 °F 64 °F 54 °F (1997)
Degree Days  
Heating Degree Days 0 0  
Month to date heating degree days 0 0  
Since 1 June heating degree days 0 17  
Since 1 July heating degree days 0 0  
Cooling Degree Days 6 9  
Month to date cooling degree days 68 108  
Year to date cooling degree days 501 423  
Since 1 June cooling degree days 349 331  
Growing Degree Days 20 (Base 50)    
Moisture  
Dew Point 60 °F    
Average Humidity 69    
Maximum Humidity 93    
Minimum Humidity 44    
Precipitation  
Precipitation T in 0.16 in 1.04 in (2006)
Month to date precipitation 1.33 1.42  
Year to date precipitation 22.21 20.75  
Sea Level Pressure  
Sea Level Pressure 30.16 in    
Wind  
Wind Speed 6 mph (SE)    
Max Wind Speed 12 mph    
Max Gust Speed 23 mph    
Visibility 10 miles    
Events Rain    
T = Trace of Precipitation, MM = Missing Value Source: NWS Daily Summary

Daily Weather History Graph

Daily Weather History Graph

Search for Another Location

Airport or City:

Trip Planner

Search our weather history database for the weather conditions in past years. The results will help you decide how hot, cold, wet, or windy it might be!

Date:

Astronomy

Jul. 11, 2014 Rise Set
Actual Time 5:33 AM CDT 8:23 PM CDT
Civil Twilight 5:01 AM CDT 8:55 PM CDT
Nautical Twilight 4:21 AM CDT 9:35 PM CDT
Astronomical Twilight 3:34 AM CDT 10:21 PM CDT
Moon 7:33 PM CDT (7/11) 4:45 AM CDT (7/11)
Length of Visible Light 15h 53m
Length of Day
14h 49m
Waxing Gibbous, 99% of the Moon is Illuminated
Jul 11
Waxing Gibbous
Jul 12
Full
Jul 18
Last Quarter
Jul 26
New
Aug 3
First Quarter

Hourly Weather History & Observations

Time (CDT) Temp. Heat Index Dew Point Humidity Pressure Visibility Wind Dir Wind Speed Gust Speed Precip Events Conditions
12:53 AM 62.1 °F - 55.9 °F 80% 30.18 in 10.0 mi East 5.8 mph - N/A   Clear
1:53 AM 61.0 °F - 55.9 °F 83% 30.17 in 10.0 mi East 4.6 mph - N/A   Clear
2:53 AM 60.1 °F - 55.0 °F 83% 30.17 in 10.0 mi ENE 5.8 mph - N/A   Clear
3:53 AM 59.0 °F - 55.0 °F 87% 30.17 in 10.0 mi East 6.9 mph - N/A   Clear
4:53 AM 57.9 °F - 55.0 °F 90% 30.17 in 10.0 mi East 5.8 mph - N/A   Clear
5:53 AM 57.9 °F - 55.0 °F 90% 30.17 in 8.0 mi East 6.9 mph - N/A   Clear
6:53 AM 63.0 °F - 57.9 °F 84% 30.19 in 10.0 mi East 5.8 mph - N/A   Clear
7:53 AM 66.0 °F - 57.9 °F 75% 30.22 in 10.0 mi ESE 6.9 mph - N/A   Clear
8:53 AM 72.0 °F - 60.1 °F 66% 30.21 in 10.0 mi SE 6.9 mph - N/A   Clear
9:53 AM 75.9 °F - 60.1 °F 58% 30.21 in 10.0 mi Variable 4.6 mph - N/A   Clear
10:53 AM 78.1 °F - 60.1 °F 54% 30.22 in 10.0 mi South 5.8 mph - N/A   Clear
11:53 AM 79.0 °F - 57.0 °F 47% 30.20 in 10.0 mi Calm Calm - N/A   Clear
12:53 PM 81.0 °F 81.0 °F 57.0 °F 44% 30.18 in 10.0 mi SSE 5.8 mph - N/A   Clear
1:53 PM 81.0 °F 81.1 °F 57.9 °F 45% 30.17 in 10.0 mi South 8.1 mph - N/A   Clear
2:53 PM 82.9 °F 83.2 °F 60.1 °F 46% 30.15 in 10.0 mi SSW 6.9 mph - N/A   Clear
3:53 PM 82.0 °F 82.4 °F 60.1 °F 47% 30.14 in 10.0 mi SSW 4.6 mph - N/A   Clear
4:53 PM 84.0 °F 84.4 °F 61.0 °F 46% 30.12 in 10.0 mi South 10.4 mph - N/A   Clear
5:53 PM 82.9 °F 83.3 °F 61.0 °F 47% 30.12 in 10.0 mi SE 9.2 mph - N/A   Clear
6:53 PM 79.0 °F - 62.1 °F 56% 30.12 in 10.0 mi SSE 6.9 mph - N/A   Clear
7:53 PM 73.9 °F - 64.0 °F 71% 30.13 in 10.0 mi SE 4.6 mph - N/A   Clear
8:53 PM 73.0 °F - 64.9 °F 76% 30.10 in 10.0 mi SE 8.1 mph - N/A   Partly Cloudy
9:53 PM 73.0 °F - 64.9 °F 76% 30.12 in 10.0 mi SE 5.8 mph - 0.00 in Rain Light Rain
10:53 PM 72.0 °F - 64.9 °F 78% 30.12 in 10.0 mi ESE 5.8 mph - 0.00 in   Overcast
11:53 PM 70.0 °F - 66.0 °F 87% 30.13 in 9.0 mi ESE 4.6 mph - 0.00 in Rain Light Rain